Location: Asheville, NC
(35.6000°N, 82.5500°W)
Time: 18:08:56
(UTC-04:00)

Vanguard 1 Rocket - Pass Details

Date: 07 December 2017
Orbit: 652 x 4225 km, 34.3° (Epoch: 15 July)

Event Time Altitude Azimuth Distance (km) Brightness Sun altitude
Rises 01:39:20 0° 288° (WNW) 7,878 12.0 -68.7°
Enters shadow 01:39:55 - 288° (WNW) 7,795 12.0 -68.6°
Exits shadow 02:22:37 23° 165° (SSE) 5,462 11.2 -60.7°
Drops below altitude 10° 02:27:51 10° 155° (SSE) 6,076 11.6 -59.7°
Sets 02:31:59 0° 149° (SSE) 6,676 11.9 -58.9°
